Location: Unspecified
(0.0000°N, 0.0000°E)
Time: 18:10:49
(UTC+00:00)

Vanguard 1 - Pass Details

Date: 23 April 2026
Orbit: 654 x 3817 km, 34.2° (Epoch: 18 May)

Event Time Altitude Azimuth Distance (km) Brightness Sun altitude
Rises 05:25:55 0° 310° (NW) 6,824 14.0 -7.9°
Reaches altitude 10° 05:31:12 10° 312° (NW) 5,327 13.5 -6.6°
Maximum altitude 05:45:02 73° 34° (NE) 1,651 11.4 -3.3°
Drops below altitude 10° 05:52:17 10° 118° (ESE) 2,942 13.4 -1.5°
Sets 05:54:23 0° 120° (ESE) 3,666 13.8 -1.0°
